{"data":{"norad_id":56075,"intl_designator":"2023-043AF","name":"ONEWEB-0634","alt_names":[],"object_type":"PAYLOAD","status":"ACTIVE","operator":null,"country":"UK","launch_date":"2023-03-26","launch_site_code":"SRILR","launch_vehicle":null,"mission":null,"orbit_class":"UNKNOWN","rcs_meters":null,"size_class":null,"mass_kg":null,"dimensions":null,"purposes":["comms"],"wikipedia_slug":null,"has_3d_model":false,"image_url":null,"decayed_at":null,"tle_current":{"epoch":"2026-05-25T00:39:32.836896Z","epoch_age_seconds":68722,"freshness":"FRESH","line1":"1 56075U 23043AF  26145.02746339  .00000032  00000+0  51107-4 0  9999","line2":"2 56075  87.8991 263.8443 0001968 110.1780 249.9562 13.15547631153359","mean_motion":13.15547631,"eccentricity":0.0001968,"inclination_deg":87.8991,"raan_deg":263.8443,"arg_perigee_deg":110.178,"mean_anomaly_deg":249.9562,"bstar":5.1107e-5,"rev_number":15335,"period_min":109.460118818,"perigee_km":1200.2825709738,"apogee_km":1203.2660240605,"semimajor_km":7579.9112975171,"source":"CELESTRAK","updated_at":"2026-05-25T13:38:22.706448Z"}}}